Weather in Mukhino

Russia / Amur Oblast     52°16′21″N   127°12′45″E
temp.,
°C
wind,
m/s
gust,
m/s
humid.,
%
clouds,
%
prec.,
mm/h
press.,
hPa
HPBL,
m
9 march, tue
tue900:00−5w489588 0.6 1004216
03:00−10nnw489552 0.6 1005133
06:00−11nnw6129179 0.0 1007401
09:00−13nnw7118680 0.0 1012383
12:00−7nw814800 0.0 1015740
15:00−4nw913730 0.0 10171232
18:00−7nw613760 0.0 1020455
21:00−10nw48820 0.0 1023135
10 march, wed
wed1000:00−13w33870 0.0 102322
03:00−12sw348620 0.0 102262
06:00−11ssw4983100 0.0 1020163
09:00−8ssw51276100 0.0 1017427
12:00−4sw61080100 0.0 1014896
15:00−2wsw5890100 0.5 1012858
18:00−3nw51191100 0.4 1014739
21:00−8nw5138582 0.4 1019345
11 march, thu
thu1100:00−11nw613750 0.0 1022270
03:00−12nw612710 0.0 1025230
06:00−15nw48780 0.0 1027114
09:00−11wnw46770 0.0 1028164
12:00−6wsw46704 0.0 1027702
15:00−3sw467342 0.0 1025754
18:00−5s23849 0.0 102422
21:00−7s228939 0.0 102621
12 march, fri
fri1200:00−10nw129010 0.0 102621
03:00−11nw12935 0.0 102621
06:00−11s23940 0.0 102622
09:00−6ssw489315 0.0 1025239
12:00−2ssw59960 0.0 1022359
15:00+1sw59983 0.0 1019442
18:000ssw488767 0.0 1017144
21:00−2sw598339 0.0 1017155
13 march, sat
sat1300:00−3sw5107924 0.0 1015161
03:00−5sw5117362 0.0 1014156
06:00−5sw5117134 0.0 1012205
09:00−3sw5117461 0.0 1012323
12:00+1wsw379819 0.0 1012467
15:00+1ssw2310052 0.0 1011121
18:000sse3598100 0.0 1010135
21:00−4s459368 0.0 100982